[[{"header":{"parameterUnit":"m.s-1","parameterCategory":1,"la1":30.2992,"la2":30.254,"lo1":-89.0895,"lo2":-89.0443,"dy":0.0025,"dx":0.0025,"nx":19,"ny":19,"refTime":"2026-04-14T21:00:00:Z","depth":0,"parameterNumber":2,"parameterNumberName":"U-component_of_WINDS"},"data":[0,0,0,-0.9059,-0.9055,-0.8866,-0.8865,-0.8648,-0.8646,0,0,0,0,0,0,0,0,0,0,0,-0.9134,-0.9133,-0.9059,-0.9055,-0.8866,-0.8865,-0.8648,-0.8646,0,0,0,0,0,0,0,0,0,0,0,-0.9135,-0.9134,-0.9133,-0.9054,-0.8866,-0.8865,-0.8649,-0.8781,0,0,0,0,0,0,0,0,0,0,-0.8961,-0.905,-0.9134,-0.9133,-0.9053,-0.8866,-0.8865,-0.8787,-0.8773,-0.8746,0,-0.873,0,-0.8685,-0.8634,-0.8633,0,0,0,-0.9039,-0.9062,-0.8994,-0.9133,-0.9052,-0.8867,-0.8947,-0.8779,-0.8763,-0.8727,-0.8727,-0.8718,-0.8682,-0.8632,-0.8632,-0.8536,-0.8537,0,0,-0.905,-0.9109,-0.9006,-0.8985,-0.902,-0.8953,-0.8941,-0.8769,-0.8771,-0.8726,-0.8712,-0.8678,-0.8631,-0.863,-0.8536,-0.8536,0,0,0,-0.909,-0.9117,-0.9053,-0.8995,-0.8959,-0.8948,-0.8934,-0.8778,-0.8753,-0.871,-0.8676,-0.863,-0.8628,-0.8536,-0.8536,-0.8611,0,0,0,-0.9096,-0.9141,-0.9058,-0.9093,-0.8963,-0.8867,-0.8948,-0.8765,-0.8743,-0.8677,-0.863,-0.8626,-0.8535,-0.8536,-0.8608,-0.8636,0,0,0,-0.914,-0.9146,-0.9126,-0.9096,-0.9018,-0.8869,-0.8832,-0.8759,-0.8723,-0.8633,-0.8626,-0.8535,-0.8536,-0.8606,-0.8631,-0.8629,0,0,0,-0.9203,-0.9192,-0.9128,-0.9102,-0.902,-0.8918,-0.8833,-0.8752,-0.8684,-0.8629,-0.8535,-0.8536,-0.8605,-0.8628,-0.8627,-0.8639,-0.865,0,0,-0.9222,-0.9196,-0.9176,-0.9113,-0.9039,-0.8942,-0.8875,-0.8754,-0.8688,-0.859,-0.8586,-0.8609,-0.8631,-0.8629,-0.8689,-0.8698,0,0,0,-0.9202,-0.9189,-0.9156,-0.9096,-0.9006,-0.893,-0.8813,-0.8768,-0.8683,-0.8651,-0.8605,-0.8616,-0.8613,-0.8616,-0.8623,-0.8616,-0.854,-0.854,-0.854,-0.9314,-0.9235,-0.9197,-0.9095,-0.9037,-0.8918,-0.8863,-0.8781,-0.8714,-0.8705,-0.8675,-0.8722,-0.8728,-0.8733,-0.8727,-0.8675,-0.8675,-0.8675,-0.8675,-0.9335,-0.9304,-0.922,-0.9153,-0.9068,-0.9008,-0.8892,-0.8848,-0.8778,-0.8737,-0.873,-0.8692,-0.8746,-0.8736,-0.868,-0.8679,-0.8679,-0.8678,-0.8678,-0.94,-0.9372,-0.932,-0.9226,-0.9162,-0.9057,-0.8996,-0.8919,-0.8846,-0.8838,-0.8799,-0.8798,-0.8787,-0.8825,-0.8825,-0.8826,-0.8826,-0.8826,-0.8826,-0.9489,-0.9428,-0.9388,-0.9294,-0.9246,-0.9172,-0.9053,-0.9002,-0.8926,-0.8874,-0.8873,-0.8808,-0.8767,-0.8758,-0.8828,-0.8828,-0.8827,-0.8827,-0.8827,-0.954,-0.9517,-0.9456,-0.9409,-0.9291,-0.9233,-0.9136,-0.904,-0.8986,-0.8958,-0.8894,-0.8877,-0.8843,-0.8836,-0.8829,-0.8912,-0.8912,-0.8912,-0.8912,-0.9596,-0.9573,-0.9494,-0.9423,-0.9344,-0.9252,-0.9183,-0.909,-0.8989,-0.895,-0.8927,-0.891,-0.8907,-0.8875,-0.8867,-0.8859,-0.8948,-0.8948,-0.8948,-0.9623,-0.959,-0.9548,-0.9453,-0.9356,-0.9273,-0.9206,-0.9125,-0.9005,-0.8948,-0.8918,-0.8917,-0.8889,-0.8884,-0.8828,-0.8817,-0.8801,0,0]},{"header":{"parameterUnit":"m.s-1","parameterCategory":1,"la1":30.2992,"la2":30.254,"lo1":-89.0895,"lo2":-89.0443,"dy":0.0025,"dx":0.0025,"nx":19,"ny":19,"refTime":"2026-04-14T21:00:00:Z","depth":0,"parameterNumber":3,"parameterNumberName":"V-component_of_WINDS"},"data":[0,0,0,3.3928,3.3926,3.381,3.3809,3.3663,3.3662,0,0,0,0,0,0,0,0,0,0,0,3.3968,3.3967,3.3929,3.3926,3.381,3.3809,3.3663,3.3662,0,0,0,0,0,0,0,0,0,0,0,3.3968,3.3967,3.3966,3.3926,3.381,3.3809,3.3663,3.3749,0,0,0,0,0,0,0,0,0,0,3.3861,3.3903,3.3967,3.3966,3.3925,3.381,3.3809,3.3753,3.3744,3.3717,0,3.3699,0,3.3678,3.3652,3.3652,0,0,0,3.3921,3.3911,3.3876,3.3966,3.3924,3.381,3.3861,3.3748,3.3737,3.3705,3.3696,3.3691,3.3676,3.3651,3.3651,3.3525,3.3525,0,0,3.3927,3.3948,3.3883,3.3869,3.3892,3.3865,3.3857,3.3742,3.3732,3.3696,3.3687,3.3673,3.365,3.3649,3.3526,3.3525,0,0,0,3.3949,3.3953,3.392,3.3876,3.3855,3.3861,3.3853,3.3737,3.3725,3.3686,3.3672,3.365,3.3648,3.3526,3.3525,3.353,0,0,0,3.3953,3.3965,3.3924,3.3935,3.3857,3.3795,3.3851,3.3733,3.3719,3.3672,3.365,3.3647,3.3526,3.3526,3.3531,3.3528,0,0,0,3.3973,3.3968,3.3953,3.3936,3.3888,3.3797,3.3778,3.373,3.3711,3.3652,3.3646,3.3527,3.3526,3.3532,3.3529,3.3502,0,0,0,3.4,3.3955,3.3954,3.3898,3.3889,3.3802,3.3778,3.3711,3.3661,3.3649,3.3526,3.3526,3.3532,3.353,3.3503,3.3484,3.3478,0,0,3.3955,3.3951,3.3917,3.3912,3.3832,3.3818,3.3736,3.3668,3.3641,3.3564,3.3561,3.3531,3.3529,3.3503,3.3439,3.3435,0,0,0,3.3909,3.3885,3.386,3.3816,3.3766,3.3723,3.3666,3.3641,3.3576,3.3608,3.3513,3.3511,3.3495,3.3485,3.3481,3.3466,3.3522,3.3522,3.3522,3.3873,3.3846,3.3788,3.3748,3.3705,3.3649,3.3611,3.3567,3.3548,3.3526,3.3503,3.3468,3.3457,3.3454,3.3439,3.3491,3.3491,3.3491,3.3491,3.3805,3.3767,3.3748,3.3685,3.3656,3.3601,3.3545,3.3534,3.3477,3.3483,3.3467,3.3475,3.3451,3.3435,3.3491,3.3491,3.3491,3.3491,3.3491,3.3778,3.3756,3.373,3.3666,3.3618,3.3577,3.3526,3.3499,3.3472,3.3457,3.343,3.343,3.3426,3.3446,3.3446,3.3446,3.3446,3.3446,3.3446,3.3761,3.3732,3.3694,3.3641,3.361,3.3567,3.3512,3.348,3.3437,3.3422,3.3421,3.3405,3.3454,3.3468,3.3444,3.3444,3.3444,3.3445,3.3445,3.3701,3.3712,3.3653,3.3623,3.3559,3.3515,3.3483,3.3421,3.3391,3.3366,3.3354,3.3395,3.3387,3.3389,3.34,3.336,3.336,3.336,3.336,3.3678,3.3674,3.3609,3.3564,3.3516,3.3483,3.3415,3.3373,3.3329,3.3308,3.331,3.3322,3.3327,3.3316,3.332,3.3329,3.3273,3.3272,3.3272,3.364,3.363,3.3579,3.3543,3.3491,3.3447,3.3383,3.3329,3.3281,3.3268,3.3291,3.3295,3.3314,3.3322,3.3308,3.3315,3.3332,0,0]}]]